User: anonymous   Login
Location: Radomski Observatory
(40.2854°N, 79.5145°W)
Time: 11:19:51
(UTC-05:00)
Language:

Uosat F - Orbit

View from above orbital plane
View from above orbital plane
View from above satellite
View from above satellite

Ground track
Ground track

The orbit data is extracted from the following two-line orbital elements,

1 21575U 91050B   15028.53982914  .00000220  00000-0  83612-4 0  2285
2 21575 098.7264 013.7825 0007430 020.5040 053.9449 14.40544739235925
Epoch (UTC): 28 January 2015 12:57:21
Eccentricity: 0.0007430
inclination: 98.7264°
perigee height: 751 km
apogee height: 762 km
right ascension of ascending node: 13.7825°
argument of perigee: 20.5040°
revolutions per day: 14.40544739
mean anomaly at epoch: 53.9449°
orbit number at epoch: 23592

The dashed part of the orbit path shows where the satellite is in the earth's shadow,  

DLR